Wind_Speed
14 14 15 15 15 14 13 13 12 11 10 9 9 9 9 9 9 8 8 8 8 9 9 10 10 11 12 14 16 17 18 16 11 7 5 6 5 4 3 5 12 13 12 10 8 7 6 5 4 6 5 2 0 0 2 2 1 2 2 2 0 2 2 4 5 3 3 4 5 3 3 10 8 2 2 5 7 6 5 5 5 6 7 9 14 22 21 18
15 15 15 15 15 15 14 13 13 12 11 10 10 9 9 9 9 9 9 9 9 10 10 10 10 11 12 14 15 16 16 15 10 7 6 5 3 5 8 8 11 14 11 7 6 6 7 4 5 6 4 1 0 1 2 1 1 2 2 2 2 3 3 2 3 2 2 5 6 3 3 8 7 5 4 4 4 5 7 5 6 9 8 11 18 22 18 18
16 16 16 16 16 16 15 15 14 13 13 11 11 10 9 9 9 9 9 9 10 10 10 10 11 11 12 14 16 15 14 11 5 3 4 5 1 7 11 10 10 11 8 5 5 6 7 7 8 6 3 0 1 1 2 0 2 2 2 1 4 4 2 2 2 3 2 6 8 4 4 4 3 4 3 6 7 6 7 6 6 7 8 10 14 17 17 17
17 17 16 16 16 17 17 16 15 14 14 13 12 11 10 10 9 9 8 8 8 9 10 10 11 11 12 15 16 13 10 4 1 1 3 5 1 8 14 11 8 10 8 6 6 6 7 7 7 4 3 1 2 1 2 2 3 2 3 3 4 2 2 3 3 4 3 5 7 6 5 4 2 1 3 10 9 3 5 7 9 10 12 13 12 14 15 15
18 17 17 17 17 17 17 17 16 15 15 14 13 13 12 11 10 9 8 8 8 9 10 10 11 12 13 15 13 10 5 3 2 3 2 4 2 7 14 11 8 10 9 6 6 7 6 5 4 4 3 0 1 1 2 5 4 1 3 3 1 1 2 2 1 3 4 3 4 7 7 5 3 2 5 12 9 5 6 6 10 13 14 15 15 14 14 13
18 18 17 17 17 17 16 16 15 15 15 15 15 14 13 12 11 10 9 8 8 9 10 11 11 11 13 14 10 6 3 2 4 3 2 2 2 5 13 11 8 9 9 6 5 6 5 4 4 3 2 0 2 3 4 5 5 1 1 1 2 1 1 1 0 2 5 5 4 6 5 3 5 3 2 8 5 5 6 6 9 11 13 17 17 14 12 11
18 18 17 17 17 16 16 15 14 14 14 14 14 13 13 12 11 10 10 9 8 9 10 10 10 11 13 12 6 3 2 1 3 2 3 2 1 3 12 12 9 9 9 7 5 4 4 5 3 3 3 1 3 5 4 4 6 2 1 2 1 1 1 3 3 2 6 9 5 3 4 3 6 4 1 4 3 4 7 8 9 11 14 16 14 12 10 11
19 18 17 17 17 16 16 15 14 14 14 13 13 13 12 12 11 10 10 9 9 9 9 9 9 10 12 9 3 3 2 1 3 4 4 2 2 3 11 13 11 9 8 7 6 5 5 5 4 3 2 2 2 3 2 5 4 2 1 2 2 2 0 3 5 4 6 8 4 4 6 2 2 3 4 4 4 6 9 10 11 12 13 12 11 11 10 10
19 18 17 17 16 16 16 16 15 15 15 14 13 13 13 12 11 10 10 9 9 9 8 8 8 9 11 6 2 3 1 2 5 6 4 3 3 2 9 12 12 10 8 6 7 6 3 4 4 3 2 3 1 2 2 4 2 2 3 1 2 4 3 0 5 7 7 7 7 8 5 3 2 1 3 4 4 8 11 12 12 12 12 10 10 10 9 9
19 18 17 17 17 17 17 16 16 16 16 15 14 13 13 13 11 10 9 9 8 8 7 6 6 7 8 5 4 3 1 2 6 7 4 3 3 1 7 9 11 12 8 6 9 7 4 5 3 2 3 2 1 3 2 3 2 5 6 3 4 3 4 2 1 5 8 7 8 9 6 2 2 1 2 3 4 10 13 12 13 13 12 11 9 9 10 10
20 18 17 17 17 17 16 16 17 17 17 16 15 15 15 13 11 10 8 8 8 7 6 5 5 6 5 4 4 2 1 1 5 7 4 3 4 2 4 6 10 13 10 7 11 12 6 5 2 1 1 1 1 3 3 4 6 8 6 5 3 2 4 5 6 6 6 6 5 7 8 2 2 1 3 3 6 12 15 13 12 12 11 10 10 9 8 9
21 19 18 17 17 16 16 16 16 17 17 17 17 17 17 14 11 10 8 6 6 6 5 4 4 5 4 3 2 4 1 2 5 6 5 3 3 3 2 4 7 12 12 7 9 13 9 3 3 1 1 1 1 2 3 4 6 6 4 4 1 0 4 6 5 2 1 4 5 5 7 2 2 2 3 5 8 11 14 14 12 11 10 9 9 8 7 10
22 21 19 18 17 16 16 16 16 17 17 18 18 19 19 15 12 10 7 4 5 4 3 3 4 4 3 1 3 2 1 4 5 6 5 4 4 5 4 3 4 8 11 8 5 7 11 7 0 1 2 2 1 1 4 3 3 3 2 3 1 3 3 5 4 2 1 3 5 3 4 3 5 4 3 6 10 10 12 13 11 10 9 9 8 7 7 9
23 21 20 19 17 16 16 16 16 17 18 19 20 21 20 16 11 7 4 3 3 2 2 3 5 2 1 2 3 1 3 6 6 6 5 5 5 5 4 3 5 7 9 9 4 0 3 6 3 1 1 2 2 2 4 2 2 1 2 2 2 2 2 3 3 2 3 3 4 3 1 5 5 5 4 7 11 13 12 11 11 10 9 9 8 8 8 8
23 22 20 19 17 17 16 16 17 17 19 20 20 21 18 12 7 2 1 1 1 1 1 3 4 2 1 3 2 2 6 6 3 3 4 6 5 3 4 6 7 8 9 10 6 1 0 1 1 1 1 0 2 4 2 2 3 2 2 2 2 2 2 4 3 2 4 1 2 2 0 3 4 4 5 8 10 13 13 11 11 10 9 9 8 8 8 8
23 22 21 19 17 17 16 17 17 18 19 20 21 19 13 8 4 2 2 1 1 1 1 3 4 3 2 2 4 4 4 4 3 2 4 6 6 3 2 4 6 7 9 8 5 4 3 1 1 1 2 2 3 4 3 3 3 3 2 1 2 2 1 2 2 1 2 1 2 2 1 2 3 3 6 8 10 12 11 11 11 10 9 9 8 8 8 7
24 23 21 19 18 17 16 17 16 18 19 20 20 14 10 7 4 3 3 2 2 1 1 1 2 3 1 2 5 4 3 6 7 3 4 6 6 4 2 2 3 4 4 4 2 2 1 1 0 0 2 3 2 4 4 2 2 2 2 1 1 1 1 1 2 1 1 0 2 2 2 3 2 5 7 7 10 11 11 11 11 10 9 8 8 8 8 8
24 23 21 19 18 17 16 16 16 18 18 19 17 10 9 8 5 4 3 4 2 1 1 1 1 3 2 3 3 6 9 9 6 3 2 2 3 5 3 1 3 3 3 2 1 2 1 2 2 2 3 2 1 4 4 3 3 2 1 1 0 1 0 2 2 1 2 1 3 1 2 2 1 5 7 6 8 11 11 11 10 10 9 9 8 8 8 8
24 23 21 19 18 16 16 15 16 18 17 19 15 7 9 8 5 4 3 4 2 1 1 2 1 2 3 4 4 8 9 6 5 3 1 1 2 3 1 3 3 3 4 2 2 3 2 2 4 3 1 2 4 4 5 5 5 5 4 3 3 2 2 3 2 2 4 2 4 3 2 3 3 3 6 6 7 8 9 9 8 9 9 8 8 8 8 8
24 23 21 20 18 16 16 14 15 16 15 18 14 4 6 7 4 3 2 0 1 3 3 3 3 1 4 5 5 7 7 4 3 2 2 2 4 4 3 5 6 5 3 1 1 3 4 3 0 4 5 4 5 5 5 4 3 5 4 2 3 4 3 3 3 2 6 4 3 1 4 5 4 2 2 4 6 7 8 9 9 9 8 8 9 9 9 8
25 24 22 20 18 16 15 14 15 14 14 17 13 5 2 3 2 3 4 4 5 6 6 6 4 4 7 7 6 3 3 2 3 2 2 2 3 3 2 4 6 4 1 1 1 3 4 2 4 6 5 5 5 3 2 1 1 3 4 3 3 4 4 3 2 2 4 3 1 5 3 3 4 3 3 1 6 10 10 10 10 10 9 8 9 10 9 8
26 25 23 20 17 16 14 13 13 12 13 14 11 6 3 2 3 5 2 4 7 5 6 5 3 5 9 10 8 2 3 2 3 4 2 3 4 1 0 4 5 0 3 2 2 5 5 3 8 7 6 5 3 2 2 1 1 1 2 1 2 3 2 2 3 3 2 1 2 4 2 3 3 4 5 3 5 8 8 9 10 11 11 9 9 10 9 8
26 26 24 20 17 16 13 13 11 9 12 12 7 5 2 8 6 5 3 1 6 5 2 2 2 4 6 5 6 5 3 1 2 4 3 4 3 1 3 4 4 1 2 3 2 2 2 5 7 5 7 6 2 3 4 2 1 1 1 1 3 2 2 1 1 1 2 2 3 5 3 3 5 4 6 5 4 4 4 6 7 8 10 11 11 10 10 10
27 26 24 20 17 15 13 12 8 7 13 10 3 3 7 15 9 5 4 1 3 5 3 3 3 3 3 2 3 5 3 2 2 3 3 6 3 1 3 3 4 2 2 3 6 4 5 8 4 4 7 7 4 4 5 3 2 3 4 4 4 2 3 2 3 2 3 3 4 7 3 4 5 5 7 6 4 4 3 4 5 7 8 9 9 9 10 11
27 26 24 20 16 13 12 8 4 7 12 5 1 6 12 18 10 5 3 3 2 6 4 2 1 2 2 1 2 3 1 1 3 3 4 6 4 2 0 2 4 1 4 4 6 4 7 7 3 3 4 6 6 4 5 5 2 2 4 8 8 5 4 6 7 5 2 1 3 5 2 3 4 8 9 6 4 6 4 5 7 7 7 7 8 9 9 10
28 26 23 20 15 13 9 3 3 10 9 1 2 10 14 18 10 5 4 5 2 5 4 1 1 1 3 1 0 1 4 2 4 2 3 6 6 4 1 1 1 1 4 4 3 2 4 4 2 3 4 5 6 3 5 6 4 2 4 8 8 7 7 10 10 6 2 2 3 5 4 2 3 6 10 8 7 8 6 6 9 7 7 9 9 9 9 9
28 26 22 19 15 13 6 1 6 9 3 2 7 12 16 17 6 6 3 5 2 3 2 2 1 1 3 1 1 3 2 4 3 1 2 5 3 3 2 3 1 1 2 3 2 2 3 3 2 2 3 4 4 3 6 8 7 3 5 4 6 7 9 12 10 5 2 2 1 4 3 1 4 5 8 10 9 10 10 10 10 8 8 10 11 11 10 10
27 26 21 17 15 12 7 5 8 5 2 5 9 13 18 14 1 4 4 4 1 1 1 3 1 1 3 2 3 3 2 2 1 3 2 4 2 3 2 4 4 3 1 5 1 5 2 2 2 3 4 2 5 5 8 10 6 5 2 4 3 4 5 5 3 2 2 3 1 4 3 0 4 4 2 8 11 12 14 15 14 11 10 10 11 12 12 11
27 25 20 17 14 10 7 6 6 3 5 7 10 16 16 7 2 4 5 2 1 1 1 1 2 2 3 3 4 2 1 1 1 4 3 3 1 2 1 5 5 4 0 4 3 6 3 4 5 5 4 4 6 5 8 11 6 4 9 12 11 11 11 9 6 5 5 3 2 6 6 2 4 3 1 5 9 14 17 16 14 12 10 10 10 11 11 10
26 23 19 16 13 8 6 7 7 6 6 7 13 16 10 2 4 5 2 1 0 1 1 1 2 1 3 3 4 4 1 1 2 3 2 2 2 3 2 2 4 4 2 3 2 6 5 2 3 3 3 6 6 4 7 10 7 5 10 10 10 10 7 6 4 3 3 3 3 7 10 4 2 4 4 5 7 12 15 13 12 12 11 10 10 10 10 9
25 21 17 15 12 6 4 5 5 5 5 9 14 12 4 2 4 5 1 2 1 2 2 2 3 2 3 2 2 3 1 2 3 3 2 2 4 4 3 1 3 4 4 6 3 4 6 5 1 2 3 2 1 0 1 3 3 3 5 5 5 4 3 4 3 3 1 4 4 4 9 6 2 4 4 5 7 7 8 10 13 16 14 12 9 8 9 9
24 18 16 14 11 8 6 5 5 5 7 11 11 6 4 2 2 2 2 3 2 2 1 2 3 1 1 1 0 2 1 2 2 2 2 2 3 3 2 2 1 4 4 3 4 5 4 2 4 5 3 3 4 2 4 4 1 2 3 4 4 3 4 3 2 1 2 4 3 4 7 4 5 5 2 6 9 8 7 8 12 15 15 12 10 9 8 8
23 17 14 12 11 10 9 8 8 8 9 8 5 4 6 4 0 2 2 2 2 2 1 1 2 2 2 2 1 2 0 1 2 3 2 3 3 2 1 3 3 3 1 0 2 4 3 4 7 8 4 5 5 3 2 3 2 4 4 4 4 4 3 1 2 2 2 4 3 6 8 3 4 2 4 6 8 9 9 10 10 11 14 13 11 10 8 7
22 16 12 10 10 10 9 9 8 7 6 4 4 3 4 2 2 2 1 3 3 2 2 1 2 4 3 2 1 1 2 2 2 4 3 3 4 3 3 4 1 4 3 3 1 2 2 3 5 5 4 5 4 2 2 1 3 3 2 3 4 6 3 2 3 2 2 3 2 2 5 3 2 1 3 6 9 10 7 9 9 8 10 11 9 8 8 8
21 15 11 10 9 8 8 9 8 5 2 4 5 4 3 3 3 1 2 4 2 2 3 2 3 4 4 3 3 1 2 1 3 5 4 3 2 0 2 4 4 2 4 3 1 1 3 2 5 5 4 3 6 3 1 4 2 2 0 4 2 5 6 1 3 3 2 1 1 1 3 3 3 2 4 9 11 13 10 3 6 6 8 11 10 9 9 8
20 13 8 8 7 4 5 7 7 5 2 5 5 2 3 4 3 3 3 2 1 2 4 4 4 4 3 4 4 4 3 2 3 4 3 2 1 0 1 3 3 1 3 4 1 0 3 2 6 6 4 4 5 3 2 4 2 2 2 3 3 1 7 3 4 2 1 0 1 2 3 4 2 1 7 13 14 15 15 8 1 3 6 10 11 10 9 8
22 12 5 5 4 4 6 6 8 7 3 5 4 2 3 3 3 4 2 2 1 1 2 2 1 1 1 2 2 4 3 2 2 2 1 2 1 1 2 3 2 1 2 4 2 1 2 1 6 5 5 6 5 2 4 5 3 2 2 3 2 2 4 3 1 4 3 1 3 2 2 3 3 1 7 14 15 14 14 12 6 2 4 7 8 9 10 9
20 10 4 4 3 5 8 9 10 7 5 5 2 2 2 2 2 3 2 2 1 3 4 2 1 1 1 1 1 4 2 1 1 2 1 1 1 1 0 1 1 3 3 1 3 0 3 1 6 3 2 7 6 5 4 7 3 5 4 2 3 2 1 3 2 1 1 2 4 4 1 1 3 3 8 12 13 13 12 11 8 4 0 3 5 6 9 9
12 4 3 5 1 8 11 11 8 5 5 3 0 2 2 2 4 4 4 1 1 2 1 2 1 2 1 3 1 2 2 1 0 2 2 1 1 0 1 0 1 4 6 3 4 1 2 2 4 5 3 4 5 5 2 6 5 3 4 3 3 2 3 2 3 4 3 2 3 3 2 1 1 5 9 10 10 10 10 8 7 7 5 4 2 2 0 2
4 2 1 5 4 13 14 9 5 5 3 1 2 2 2 3 4 5 6 3 1 1 1 3 2 2 1 2 2 0 2 2 2 2 1 1 1 1 2 1 1 2 5 4 4 2 2 3 1 6 6 3 2 1 2 2 3 3 5 5 4 3 1 1 2 2 4 3 2 2 2 1 1 4 8 10 8 9 9 8 7 7 8 8 6 6 5 6
3 2 1 5 6 16 12 6 3 3 2 1 2 3 2 2 3 3 5 5 3 2 2 4 4 3 2 2 2 1 1 3 2 2 1 1 2 1 2 1 2 2 2 5 4 2 0 2 1 3 3 3 2 5 3 3 3 1 4 4 2 2 2 1 3 2 1 3 3 2 2 1 3 5 7 8 7 8 9 8 7 8 10 9 7 6 6 7
3 1 2 3 9 14 7 4 1 1 3 2 2 3 2 2 2 4 3 1 2 2 1 3 3 2 3 2 2 2 3 2 1 1 1 1 3 3 2 1 1 1 3 2 2 1 2 3 3 1 1 3 6 6 6 5 3 3 3 4 2 1 2 2 3 3 2 1 3 2 0 1 3 5 7 7 7 7 8 8 7 6 6 6 5 3 6 8
2 2 4 1 12 10 6 2 2 1 2 3 2 3 2 1 2 3 3 2 0 1 1 1 2 2 2 2 2 2 3 2 1 1 1 1 2 5 4 3 1 1 4 1 3 2 1 3 3 2 3 4 6 6 6 4 2 4 3 3 4 3 2 4 4 2 0 1 1 2 0 1 3 5 6 6 6 7 8 7 6 4 3 3 2 1 3 7
1 4 4 1 10 7 3 2 3 1 3 3 3 3 3 1 2 2 3 3 1 1 1 1 2 2 2 2 3 3 3 2 1 0 1 1 1 3 3 4 1 1 2 1 2 1 1 1 3 2 3 5 5 6 5 4 4 3 1 3 5 7 7 4 2 1 1 2 1 2 1 1 2 4 5 6 7 7 7 6 5 4 3 4 3 3 3 3
1 2 3 2 3 4 1 3 4 3 2 1 2 4 3 2 3 4 5 4 2 3 2 2 1 2 2 3 4 2 2 3 1 1 1 1 2 3 4 5 2 1 1 3 2 2 2 2 3 4 3 1 1 2 3 2 2 1 1 5 7 11 12 4 1 2 2 1 1 2 2 1 1 4 7 8 7 6 6 6 6 6 6 6 5 4 4 3
2 0 2 5 3 3 1 0 3 3 2 2 1 3 1 2 5 4 5 4 3 4 1 1 2 4 4 4 4 3 2 2 2 2 2 2 2 3 3 5 3 1 2 1 3 4 3 2 2 6 6 5 5 6 6 2 2 1 2 5 7 9 11 5 2 2 1 1 2 2 3 4 5 7 7 8 7 6 6 6 6 6 7 6 6 5 4 4
2 1 0 2 3 2 2 2 3 3 2 3 1 1 1 2 5 3 2 3 2 3 2 2 2 3 2 3 4 1 1 3 3 3 2 2 3 3 3 4 3 4 4 2 3 3 4 2 1 4 4 5 6 6 5 1 3 3 2 4 6 8 9 6 4 3 1 2 2 1 2 5 5 5 5 6 7 6 6 7 7 6 6 5 5 6 7 7
1 1 1 1 1 1 1 1 1 1 1 2 2 1 2 3 3 2 2 2 2 2 2 2 2 2 6 5 5 2 1 3 3 1 1 1 1 3 4 3 3 5 3 3 3 3 5 1 1 2 1 3 3 6 3 2 3 4 4 4 4 5 6 6 5 5 4 3 1 1 3 5 5 2 4 6 7 6 6 7 6 6 7 7 6 8 9 10
1 1 1 1 0 3 2 2 1 1 1 1 1 1 1 2 3 4 3 1 3 2 3 2 4 3 5 5 6 4 3 4 1 2 2 1 1 1 2 1 3 4 4 4 3 3 4 0 2 2 3 6 4 3 1 2 2 3 4 3 3 4 5 4 4 8 9 5 4 3 5 6 4 1 4 5 7 6 5 6 6 8 9 9 9 9 10 10
1 1 2 2 2 2 2 2 1 0 1 1 0 1 1 1 3 4 3 2 2 2 2 5 6 3 4 4 7 6 8 9 7 5 6 4 1 1 1 2 1 4 5 3 2 2 3 1 2 2 4 6 5 3 4 3 3 4 5 6 4 2 5 4 2 6 8 4 6 7 4 2 2 2 4 5 6 6 6 7 8 8 9 10 10 10 10 10
2 2 0 2 1 3 2 1 2 2 1 1 2 2 1 3 3 2 4 4 7 5 4 8 7 3 3 3 6 7 9 9 9 9 9 7 5 4 2 3 4 1 4 1 1 3 3 1 2 4 5 3 4 5 4 3 6 5 4 6 7 4 2 2 3 4 4 4 1 6 6 2 1 3 4 5 6 7 8 8 8 8 9 10 10 10 10 10
4 1 1 2 0 3 1 2 2 1 3 2 2 2 3 4 4 1 3 5 5 6 6 10 9 4 3 4 6 8 9 9 8 7 7 5 4 5 3 4 6 4 1 2 1 2 2 3 1 2 3 2 4 3 3 4 5 2 3 2 3 4 2 0 4 5 4 4 4 1 4 3 2 2 3 5 6 7 8 7 7 7 8 9 9 9 10 9
Wind_Direction
6 7 7 6 5 4 2 359 0 1 3 2 4 3 359 358 353 355 356 358 0 357 354 351 352 349 342 340 337 336 334 332 327 308 260 270 286 231 201 168 169 168 161 150 140 129 117 112 123 129 122 124 105 318 162 140 87 59 85 78 60 181 200 200 180 178 161 156 155 195 179 135 142 164 125 74 57 87 84 61 75 55 71 104 121 135 142 142
7 8 7 7 7 6 7 5 5 6 8 10 13 13 10 8 1 359 359 358 358 354 354 351 352 349 341 339 335 335 335 332 322 290 270 288 293 194 166 156 169 178 173 161 156 140 124 125 150 136 101 102 250 171 160 150 132 120 102 114 233 210 209 218 161 131 149 151 142 170 175 140 145 157 141 115 109 109 92 75 86 82 87 103 121 136 142 139
10 10 8 8 7 8 10 10 12 11 12 14 15 14 12 10 7 6 3 359 355 349 346 346 352 347 340 338 336 339 333 331 330 286 326 354 270 180 162 155 165 178 180 161 149 135 125 131 141 129 83 48 267 168 144 236 188 157 108 182 247 226 250 302 183 169 161 147 137 151 165 123 138 162 140 131 132 130 129 133 117 117 127 123 130 140 142 139
11 10 9 9 9 10 11 12 14 15 16 17 16 15 13 12 14 10 3 356 347 340 337 342 347 342 340 340 339 338 331 343 67 234 2 6 44 166 167 162 155 161 160 131 116 123 122 122 124 109 88 349 309 71 162 203 188 166 144 196 246 220 237 290 211 166 129 139 142 148 148 125 146 149 132 135 128 151 179 167 152 151 149 139 143 147 144 143
10 10 10 10 11 13 12 13 14 16 18 17 16 14 12 12 11 5 359 351 341 333 332 337 342 340 341 342 338 333 348 66 223 257 325 348 26 169 174 168 161 161 157 130 112 129 127 112 96 69 76 352 326 81 216 198 163 165 171 169 244 238 221 268 270 145 120 107 135 151 151 147 144 58 144 149 147 183 190 180 160 155 154 148 150 151 147 147
10 10 9 9 10 13 13 15 15 16 17 16 15 11 9 5 359 356 353 349 341 331 332 335 339 340 341 340 335 333 31 114 250 273 293 299 6 179 181 179 175 168 162 138 117 132 122 90 77 78 99 69 200 200 236 193 163 196 227 90 49 343 232 173 115 120 117 133 176 169 150 123 112 71 170 162 161 172 155 157 155 150 152 148 148 152 151 154
10 10 9 8 9 11 13 15 16 17 17 15 13 9 5 358 353 349 342 341 336 333 334 335 337 337 341 341 331 348 67 226 277 330 317 281 327 187 185 189 183 177 173 143 121 130 119 99 99 133 136 250 214 224 248 172 169 177 338 326 12 60 179 178 182 160 138 158 180 139 130 133 128 119 162 177 181 149 133 136 140 141 145 145 148 153 156 160
10 10 8 6 7 8 9 11 12 14 15 12 9 7 0 354 349 341 336 331 326 333 335 334 336 336 345 350 349 16 33 319 339 345 328 301 286 201 187 192 189 187 178 158 155 151 128 119 152 162 131 259 210 239 237 134 159 181 90 326 10 37 127 193 191 179 154 155 151 131 144 131 111 122 140 182 193 138 130 132 134 138 143 149 155 157 159 163
9 8 6 5 4 5 5 6 6 9 11 8 5 1 355 349 342 336 333 327 322 328 331 333 332 340 352 355 74 56 333 296 348 340 328 310 304 220 190 195 197 192 169 171 183 168 165 155 183 186 177 263 259 291 245 134 183 166 107 46 57 30 31 154 211 191 167 147 149 148 126 72 13 335 138 180 190 138 132 135 139 144 150 158 163 162 162 168
8 6 4 2 2 2 2 2 1 2 4 3 359 354 349 343 337 330 326 325 323 322 328 333 329 348 360 358 75 79 260 304 350 343 331 307 317 216 196 203 202 194 164 166 189 185 188 169 179 184 181 267 326 314 274 158 151 107 108 97 84 41 42 62 156 161 155 144 151 147 121 80 349 331 152 190 179 143 134 139 147 150 157 165 167 169 168 174
7 5 2 359 1 360 360 359 358 358 358 356 353 349 344 338 331 324 319 319 318 321 326 326 335 354 6 36 89 148 233 352 343 343 339 307 317 316 217 222 210 194 167 158 200 204 187 153 123 100 159 307 5 3 30 114 109 109 122 99 77 71 68 60 86 119 140 132 155 143 116 81 5 320 206 188 167 148 141 148 154 154 162 168 169 173 172 181
6 3 0 358 358 358 358 356 355 355 352 351 348 345 341 334 323 312 308 308 309 320 323 327 351 351 4 55 145 197 184 349 316 319 327 312 297 321 310 249 227 204 179 164 212 215 207 185 59 62 270 7 55 13 67 105 109 128 127 87 2 349 64 32 66 142 184 115 177 145 106 110 203 238 244 166 159 151 147 152 157 158 163 168 172 176 178 187
5 3 0 358 357 357 355 354 354 352 350 349 345 342 339 330 317 302 294 292 300 316 319 339 347 342 24 26 236 219 357 333 308 287 295 294 262 285 308 257 234 221 199 189 219 221 222 234 200 210 247 90 69 198 148 134 109 131 92 87 355 355 23 14 34 262 7 131 201 138 105 215 216 244 249 161 155 148 151 159 162 161 161 168 174 178 187 191
4 3 0 357 356 354 353 353 353 351 350 348 344 341 335 328 319 297 278 273 288 311 324 353 349 354 59 262 248 242 301 309 300 267 265 262 240 257 274 231 208 214 214 223 244 299 212 224 220 250 258 151 165 138 127 97 49 56 48 60 44 34 310 340 4 343 69 164 237 47 102 220 231 246 206 167 158 152 159 166 167 166 163 168 175 180 191 194
3 3 1 358 355 352 352 352 351 352 351 347 345 342 336 335 337 319 227 242 258 110 47 16 12 23 24 301 293 317 301 306 295 246 253 254 231 234 248 225 213 210 222 239 247 262 268 210 199 14 335 217 125 106 75 29 13 21 63 340 344 76 290 322 4 32 76 179 254 31 303 226 242 234 178 171 164 157 163 167 171 174 168 169 174 181 191 197
2 3 1 358 354 351 351 351 352 353 351 348 347 347 348 360 21 80 145 178 77 102 78 45 31 46 89 340 333 340 315 323 336 261 250 255 237 219 193 204 215 218 229 241 254 263 268 276 133 126 100 82 98 105 69 34 1 353 84 204 294 74 331 327 16 1 83 83 204 195 212 229 248 208 166 173 167 160 164 168 174 177 175 174 175 182 189 195
1 1 0 358 354 350 350 351 353 354 351 350 351 357 11 19 45 95 130 96 80 137 81 82 27 29 65 309 332 342 312 316 319 276 245 259 245 228 169 154 184 196 223 232 265 295 281 63 105 168 56 73 118 102 74 23 305 314 50 99 257 76 60 316 346 321 95 101 220 196 200 232 238 164 160 174 167 164 166 172 178 179 181 179 177 185 190 193
359 359 359 358 354 350 349 351 354 353 351 354 357 15 31 32 70 83 110 100 80 112 51 303 31 45 299 307 324 296 300 309 308 268 244 285 246 233 225 127 119 106 42 37 9 12 39 355 40 86 39 50 145 105 108 212 202 187 172 119 119 72 261 272 298 208 145 222 248 252 257 277 44 142 162 175 171 172 174 176 181 181 183 183 182 189 193 193
357 358 358 356 354 351 349 353 355 352 354 360 1 34 42 32 70 71 109 99 48 33 357 286 56 81 251 273 284 290 305 317 303 262 164 78 146 178 151 72 80 81 54 44 355 10 58 19 38 99 142 179 191 168 165 199 183 162 163 143 141 173 236 245 253 185 139 179 242 241 284 14 41 144 169 179 179 182 182 180 184 186 186 186 189 194 196 196
355 356 356 355 354 350 349 352 354 352 359 5 4 40 41 18 25 0 329 121 210 213 244 235 162 203 263 272 290 305 313 307 284 241 120 96 136 130 59 33 35 44 65 130 295 1 67 76 168 207 205 194 206 204 179 185 162 135 137 159 176 196 241 248 228 144 124 169 239 31 28 357 336 316 204 181 182 193 191 189 192 190 190 190 194 199 199 201
353 353 354 354 353 351 350 350 351 355 3 10 19 55 76 27 8 321 322 308 256 221 239 236 191 232 259 265 283 318 342 310 285 274 141 113 106 108 1 21 50 31 336 213 267 3 54 97 235 227 201 183 208 218 165 168 126 114 138 185 226 219 235 260 232 93 105 168 134 77 73 301 300 303 299 209 190 204 199 194 197 195 195 195 198 202 202 204
351 351 351 352 352 351 348 347 350 357 4 12 37 86 140 10 302 246 268 323 286 246 239 254 226 253 263 259 257 223 76 18 314 296 203 130 49 72 311 50 84 99 314 20 4 1 16 267 248 230 175 154 182 145 102 110 98 103 126 161 262 243 227 339 29 61 64 140 126 106 132 279 287 261 274 281 220 217 209 202 201 197 198 199 200 202 203 206
349 348 349 349 350 350 347 345 348 359 2 6 45 104 76 360 349 210 174 337 291 290 262 255 233 262 285 268 222 166 104 67 274 293 205 139 41 126 128 72 98 118 10 69 126 49 352 255 241 191 146 140 151 129 126 94 46 197 157 201 258 216 161 22 34 147 62 90 129 114 104 290 288 276 270 264 240 243 239 221 218 210 204 204 203 200 198 201
348 346 346 345 346 349 343 338 346 2 356 357 57 74 3 356 6 158 160 17 300 297 249 219 227 232 275 311 156 143 122 191 206 283 190 134 76 108 141 128 109 75 274 158 142 153 246 247 220 143 149 153 148 135 136 136 248 236 191 218 239 175 150 127 156 166 44 57 117 112 107 261 243 233 248 247 228 247 250 220 233 236 221 214 212 208 203 200
348 344 343 342 343 345 341 337 3 359 347 352 80 357 352 350 355 154 145 34 323 299 279 226 255 232 258 8 143 161 100 224 225 239 189 147 127 117 161 166 112 3 239 153 130 171 259 255 186 176 199 155 144 170 169 163 204 282 217 217 222 193 153 127 142 141 69 261 177 136 152 263 222 215 230 233 221 232 230 210 223 231 224 218 213 215 214 207
347 343 340 339 338 341 341 345 4 344 340 336 320 336 343 346 348 160 127 44 329 300 320 313 349 319 306 338 168 80 61 317 261 224 174 163 150 119 54 267 51 295 202 148 133 190 265 275 128 175 206 145 141 202 221 175 146 289 243 209 210 200 157 144 156 155 143 226 193 170 189 273 269 229 221 215 220 232 231 223 224 221 215 214 209 209 211 209
346 342 338 335 336 341 341 292 326 333 335 284 317 331 339 344 341 171 104 36 339 295 307 294 345 19 307 288 74 83 82 288 291 349 159 167 163 68 68 254 316 266 187 106 19 276 247 298 26 88 103 127 151 217 222 173 140 239 252 192 195 195 169 165 171 166 139 92 88 184 174 344 290 258 217 196 203 229 234 230 227 218 213 214 211 207 203 203
344 341 335 331 333 335 327 303 310 312 250 288 315 332 339 340 293 154 77 63 326 316 227 288 316 305 302 346 68 96 235 289 71 286 304 140 161 53 51 243 194 198 197 95 327 271 229 250 235 128 89 137 199 217 194 162 159 235 181 89 110 121 107 116 107 7 25 65 67 205 165 132 264 276 235 183 196 222 230 226 222 214 210 211 212 208 202 201
343 339 330 328 327 325 319 301 291 272 268 292 324 335 336 337 130 85 65 104 343 358 161 340 329 289 332 10 23 22 298 2 133 266 332 87 157 67 130 231 158 157 261 103 196 259 251 214 198 138 116 202 234 236 177 161 191 199 104 77 63 65 64 63 51 10 7 6 240 192 173 188 268 270 146 166 202 221 224 223 218 213 208 206 209 208 201 197
341 337 325 322 322 318 316 296 269 252 266 299 330 335 342 28 78 63 52 163 324 286 234 333 304 327 53 45 334 339 349 274 319 317 7 51 334 28 124 198 104 109 6 22 239 259 290 267 165 128 174 214 232 231 178 175 188 139 99 84 70 64 61 66 57 42 33 297 257 183 178 170 305 263 186 174 212 221 220 218 212 209 208 203 204 205 199 194
340 334 320 315 311 297 295 294 258 231 265 315 333 342 15 56 61 86 152 251 260 299 328 298 287 13 74 120 282 319 1 318 337 7 5 4 354 9 41 48 49 54 12 358 327 301 338 4 16 261 249 229 232 161 138 190 195 113 98 106 84 49 36 53 39 54 140 251 274 188 175 169 246 261 214 232 278 269 236 222 212 207 204 201 198 197 198 195
339 330 314 304 291 261 240 254 263 266 298 323 340 10 79 42 23 114 270 307 298 287 308 262 278 13 87 115 289 291 326 314 347 60 73 40 30 17 48 167 134 35 2 334 332 345 0 8 332 308 301 24 38 34 14 12 54 110 119 108 78 32 19 28 1 310 217 246 267 154 149 171 243 260 259 259 277 277 249 229 221 211 201 196 191 191 197 194
337 326 309 291 272 256 248 259 272 284 305 331 3 49 78 78 211 221 276 319 251 244 242 247 307 20 90 77 332 272 32 304 335 39 63 72 59 25 324 225 162 100 61 8 5 0 348 315 347 355 339 6 47 90 4 351 92 147 160 128 107 94 58 334 272 300 275 265 262 161 157 204 265 296 338 313 291 277 251 227 217 210 201 193 186 184 189 191
336 324 306 282 263 257 254 258 264 276 311 1 55 70 77 103 216 206 253 264 252 289 345 330 338 15 57 66 281 223 79 342 1 37 24 45 51 17 333 309 11 108 110 76 63 65 50 322 344 360 326 345 11 117 158 155 138 176 200 121 124 133 125 240 221 212 253 270 319 143 170 210 196 184 342 340 327 319 286 231 201 193 192 181 175 179 183 189
336 323 304 282 267 256 240 239 246 256 317 49 67 77 123 206 243 171 222 251 273 322 324 357 50 44 20 341 323 54 107 337 20 45 29 48 90 37 327 310 332 81 106 74 319 100 88 260 279 284 270 353 356 320 146 102 110 268 54 92 120 152 140 212 239 196 192 183 43 166 208 230 199 220 360 8 352 350 346 290 176 171 175 163 171 189 187 186
336 327 302 275 264 230 199 206 202 191 135 76 65 73 175 210 209 169 205 241 301 309 325 359 47 62 357 324 331 3 45 36 36 51 17 26 96 299 325 293 311 21 123 120 183 354 71 259 286 314 326 11 8 328 25 81 138 281 53 106 266 187 131 170 275 318 33 187 247 230 261 304 297 267 358 8 2 0 359 355 58 149 163 164 178 191 190 187
337 334 304 275 266 182 166 164 157 153 110 79 90 186 215 215 183 173 218 284 286 19 63 40 36 85 329 325 313 323 11 35 43 68 26 2 20 316 324 295 296 285 193 139 147 209 113 259 294 337 345 327 343 34 25 34 103 102 77 171 249 10 93 127 266 344 5 263 272 274 247 322 7 336 340 357 3 3 355 346 351 57 147 174 184 187 192 187
335 331 308 304 284 171 153 145 143 131 80 70 90 243 223 203 196 194 234 289 342 59 82 134 187 143 184 148 284 303 358 38 342 54 93 26 14 178 161 285 302 328 305 77 97 158 98 26 294 308 286 300 338 50 17 341 21 116 141 159 119 114 117 112 158 236 331 265 288 305 275 11 24 336 333 347 358 1 353 348 351 3 73 203 203 193 194 187
336 344 340 343 23 148 144 141 134 88 58 70 185 254 226 230 242 222 220 261 75 82 90 207 182 80 134 150 181 301 8 118 145 66 108 120 60 139 126 207 287 334 332 35 111 165 66 77 282 296 299 310 359 38 25 319 333 76 91 45 60 140 174 151 174 177 161 215 264 304 322 52 2 332 333 336 353 6 1 4 12 9 12 10 12 30 231 198
359 55 331 348 86 145 144 130 98 61 62 167 200 215 246 259 258 232 211 202 152 156 201 207 174 98 166 179 157 200 34 94 123 100 126 150 112 277 291 252 218 312 342 30 85 108 41 70 270 301 328 22 25 333 177 237 305 15 40 28 3 344 2 264 264 154 139 171 211 266 290 297 354 343 331 328 352 15 11 19 32 29 33 39 47 56 45 33
21 62 285 351 123 152 139 98 69 78 126 215 215 219 270 274 278 274 224 198 196 216 176 163 162 142 162 159 138 168 70 62 82 111 152 173 129 188 287 240 207 241 10 27 42 76 83 86 90 319 0 84 198 240 230 212 212 150 69 54 357 337 47 41 285 284 134 141 153 191 254 305 354 346 334 337 6 25 20 26 38 36 36 37 46 74 86 72
35 90 305 359 160 163 117 74 223 111 140 212 219 213 264 292 285 307 297 212 181 200 112 125 150 137 149 158 144 145 109 81 28 79 134 194 161 183 273 312 224 146 91 65 313 267 153 103 79 2 227 202 236 261 276 262 204 138 82 74 92 74 75 133 228 262 317 148 141 124 329 295 348 346 342 351 18 37 31 31 40 44 43 33 23 57 98 99
92 247 319 21 177 171 71 65 257 4 190 246 262 220 249 281 257 304 321 329 193 187 44 102 155 140 169 179 146 142 127 112 75 81 172 261 204 221 273 342 355 85 80 78 279 295 85 77 52 328 304 300 296 306 303 295 68 73 26 38 62 14 309 233 212 191 309 303 123 111 75 326 359 352 347 351 16 46 46 32 28 38 53 39 347 316 98 104
168 253 318 76 180 178 68 160 212 267 246 289 336 296 299 270 216 245 265 264 228 161 132 179 179 163 178 140 116 150 150 119 93 3 159 149 246 257 313 359 22 133 92 167 195 84 64 80 68 45 5 345 338 338 327 334 37 78 328 359 22 2 339 293 235 120 112 305 331 138 163 335 345 346 356 2 14 37 46 33 13 6 33 35 1 349 24 68
352 234 289 327 180 161 142 178 154 159 235 331 344 302 316 301 250 225 218 236 216 163 164 218 174 116 110 89 77 79 95 119 147 317 124 171 285 305 352 6 29 123 243 217 162 95 103 129 109 107 107 114 260 279 268 291 10 52 343 5 16 9 357 333 202 99 111 211 349 102 129 129 21 13 7 0 6 21 30 32 11 358 15 17 5 17 27 28
40 91 298 329 7 77 90 207 107 123 162 101 358 300 293 289 292 249 194 208 201 157 126 307 118 84 58 70 76 47 25 75 103 103 139 179 262 284 342 8 18 344 300 47 78 78 92 79 103 133 152 181 191 220 233 197 85 87 352 7 23 16 0 354 113 69 58 111 46 39 113 110 57 29 1 343 356 5 6 24 26 10 9 7 358 10 29 40
81 24 13 342 344 31 32 4 49 80 155 144 139 291 247 276 307 309 190 209 191 126 66 9 75 110 133 113 101 87 350 19 52 97 149 208 252 283 336 18 5 325 327 29 51 79 88 41 47 142 174 211 197 214 241 202 102 127 114 27 32 24 10 22 47 13 1 90 59 339 134 104 69 29 337 325 338 348 1 22 31 26 19 10 4 14 27 35
90 321 164 148 261 207 104 351 39 100 202 184 176 250 310 322 329 308 272 310 8 73 92 12 351 177 177 156 128 136 104 43 30 78 152 245 289 330 354 8 345 340 7 32 18 88 105 87 230 159 331 307 228 219 217 124 107 121 117 94 67 46 36 43 49 49 59 69 81 147 123 97 82 15 314 321 328 341 16 29 26 31 33 27 24 28 32 33
28 354 286 16 268 210 218 304 316 163 199 196 183 307 336 338 309 267 257 330 337 344 112 159 266 241 182 152 121 133 168 141 143 247 195 171 270 23 36 355 326 2 51 45 3 79 111 248 253 166 32 360 323 237 171 82 104 87 67 72 87 90 91 87 77 75 69 35 356 49 86 87 85 303 305 327 334 349 27 37 32 34 34 33 35 35 35 35
24 317 307 10 3 271 273 331 14 140 313 2 145 277 248 224 274 282 271 203 217 298 113 176 217 200 172 155 124 156 197 172 166 198 174 149 192 207 147 175 242 356 32 52 349 46 90 340 302 88 63 355 343 43 42 25 98 77 29 12 6 61 109 106 80 82 79 46 340 333 343 75 86 307 328 353 357 9 23 24 32 38 33 33 36 33 33 33
324 233 217 66 355 311 307 336 58 126 280 2 161 220 250 222 232 293 291 228 185 186 185 179 178 148 137 136 135 175 201 176 169 184 170 160 176 182 179 178 176 5 6 32 355 18 75 93 356 59 72 335 340 72 75 58 81 66 13 0 354 352 88 114 101 94 106 129 81 317 304 306 353 316 340 9 20 23 19 14 21 32 34 33 32 31 31 30
1 292 23 95 254 322 359 345 11 127 217 237 196 229 262 251 255 11 322 271 205 188 185 168 158 132 107 131 167 195 196 180 181 179 162 152 148 147 146 152 150 135 105 129 51 18 99 114 86 82 90 314 314 79 93 63 66 35 302 321 322 316 324 80 110 93 92 131 138 207 264 278 329 328 333 5 28 28 19 15 16 22 31 32 29 31 31 28
Height
798 797 796 794 793 792 790 789 788 786 786 785 784 783 782 781 781 780 780 780 780 779 779 778 777 777 775 774 773 771 770 768 768 768 766 762 760 761 762 763 764 765 767 768 769 770 771 773 773 773 775 776 778 779 778 778 779 786 797 806 806 806 802 795 795 794 792 793 793 791 788 792 797 794 789 789 795 798 799 799 798 796 795 797 798 801 804 807
799 797 796 794 793 792 790 789 788 786 785 785 784 783 782 782 781 781 780 780 780 779 778 778 777 776 775 774 772 771 769 768 767 766 763 759 760 761 761 763 764 765 766 768 769 769 772 774 773 774 776 779 780 779 781 780 781 790 800 807 805 800 794 789 789 788 788 790 791 790 789 790 793 793 789 795 803 801 804 805 802 803 802 800 800 803 806 807
799 797 796 795 793 792 791 789 788 787 786 785 784 783 783 782 782 781 781 780 779 779 778 777 777 776 774 773 772 771 770 768 767 764 760 759 760 760 761 763 764 765 767 768 769 769 771 772 772 775 779 782 781 781 784 783 785 790 797 806 801 792 790 787 786 786 786 787 790 791 789 790 791 789 789 796 804 803 806 807 805 808 806 804 803 804 806 808
799 798 796 795 794 792 791 789 788 787 786 785 784 784 783 783 782 782 781 780 779 778 777 777 777 775 775 773 772 772 769 770 768 762 760 760 760 760 762 763 764 766 767 768 769 770 770 771 772 774 780 785 783 783 787 785 786 789 794 801 796 790 792 788 785 785 785 786 788 791 790 792 789 787 790 795 804 808 805 801 801 805 804 803 803 804 806 808
799 798 796 795 794 793 791 790 789 788 787 785 785 784 783 783 782 781 781 780 779 778 777 777 776 775 775 773 773 770 770 777 770 759 761 761 760 761 762 763 765 766 767 768 769 770 771 772 773 776 782 786 786 787 787 781 782 789 792 793 791 791 793 789 786 786 787 788 790 792 792 792 789 790 792 793 801 804 799 796 795 797 798 799 801 803 806 808
799 798 797 795 794 793 792 791 790 788 787 786 785 784 783 783 782 781 781 780 779 778 777 777 776 775 774 772 772 770 772 778 767 758 762 760 761 762 762 764 764 765 767 768 769 770 772 772 775 781 784 786 788 787 784 779 779 790 792 789 790 790 791 790 788 788 788 790 793 792 790 789 791 795 794 792 795 793 791 792 793 794 795 796 799 803 805 808
799 798 797 795 794 793 792 791 790 789 788 787 786 784 784 783 782 781 780 779 779 778 777 776 776 775 774 772 772 771 772 771 761 760 762 760 762 762 762 764 764 766 766 768 769 771 772 774 778 781 785 787 788 785 780 779 780 789 794 790 789 788 789 789 788 788 787 789 791 790 790 792 795 796 795 794 792 789 789 790 792 795 796 798 800 803 805 807
799 798 797 795 794 793 792 791 790 789 788 787 786 785 784 783 782 781 779 779 778 777 777 776 775 774 773 772 771 771 771 766 760 761 761 761 762 761 763 763 764 766 766 768 769 770 772 775 778 779 786 787 784 783 779 782 786 789 792 791 788 788 787 786 787 789 788 789 789 790 794 795 794 794 796 796 792 789 789 790 793 796 798 800 802 803 806 808
799 798 796 795 794 793 792 791 790 789 788 787 786 784 783 782 781 780 779 778 777 777 776 775 775 774 774 772 772 774 770 762 760 761 761 761 762 762 763 762 764 765 766 769 768 770 772 775 777 776 784 784 781 782 779 785 791 787 789 791 790 789 787 786 787 788 789 789 790 794 798 797 793 794 797 795 792 790 789 792 795 797 801 802 803 804 805 808
799 797 796 795 793 793 791 790 789 788 787 786 785 784 783 781 780 779 778 778 777 776 776 775 775 774 774 772 773 776 767 760 761 761 761 762 761 762 763 763 764 764 766 769 768 769 769 772 773 771 777 780 780 782 779 784 787 784 788 790 790 791 787 787 789 788 789 790 790 795 800 798 793 796 800 795 790 790 791 796 797 798 802 803 804 804 805 808
799 797 796 794 793 792 791 790 789 788 787 786 785 783 782 780 779 778 777 777 776 776 775 775 774 774 774 773 775 773 763 759 761 760 761 762 762 762 763 763 763 764 766 768 768 767 767 769 769 771 778 779 780 783 781 780 782 784 788 791 792 791 789 789 790 791 790 792 792 793 798 798 795 798 799 794 790 790 793 798 799 800 803 803 804 805 805 807
798 797 795 794 793 791 790 790 788 787 786 785 784 782 781 779 778 777 776 776 776 775 775 775 775 774 774 774 773 767 760 761 761 760 761 761 762 762 762 763 763 764 766 767 767 766 768 768 768 775 779 777 783 789 785 779 781 785 787 795 797 791 793 792 792 793 791 795 791 790 802 806 802 799 795 791 791 791 794 799 800 802 803 804 805 805 806 806
798 797 795 794 792 791 790 789 788 787 785 784 783 781 779 778 776 775 775 775 775 775 775 774 775 774 774 773 766 761 760 761 760 760 761 761 762 762 762 763 763 765 766 766 767 767 768 769 769 774 774 777 785 784 780 778 782 788 788 795 800 798 799 794 792 793 793 796 789 792 813 815 803 797 793 791 792 794 798 801 802 803 803 805 806 806 807 806
798 796 795 793 792 790 789 788 787 786 784 783 781 779 777 775 774 774 774 775 774 775 775 775 775 774 775 770 761 760 761 760 760 760 760 761 761 762 762 763 763 765 766 766 767 767 768 769 769 772 773 776 779 777 781 785 787 791 793 797 803 807 806 796 792 794 796 796 788 795 815 814 802 797 793 791 791 795 801 802 802 803 803 805 806 807 808 806
798 796 794 793 791 789 788 787 786 785 783 782 780 778 775 774 773 772 773 774 774 775 775 775 775 774 774 768 760 760 760 759 760 759 760 760 760 761 762 762 763 764 765 766 767 768 769 769 771 776 776 774 776 784 792 794 793 795 802 808 808 809 807 798 793 795 799 797 791 800 814 810 801 797 793 792 792 794 800 802 803 803 803 804 806 807 808 806
797 795 794 792 790 789 788 786 785 784 782 780 778 776 774 774 773 773 774 773 774 775 774 775 775 775 777 769 760 760 760 760 759 759 760 759 760 761 761 762 763 764 765 766 767 767 768 770 773 776 779 780 785 792 798 804 805 801 806 814 812 810 810 804 797 795 797 799 797 802 811 809 801 796 794 793 793 795 799 802 803 803 803 804 805 806 807 807
797 795 793 792 790 788 787 786 785 783 781 780 778 776 774 774 773 773 774 774 775 774 774 776 774 775 774 765 762 763 761 760 759 759 759 759 760 761 761 763 763 764 764 765 766 767 768 772 776 778 781 788 791 793 804 817 817 810 809 813 812 811 812 810 803 796 795 801 803 803 806 807 800 796 796 794 794 797 800 802 803 803 803 803 804 805 806 807
796 795 793 791 789 788 786 785 784 783 781 779 777 776 776 775 775 774 774 774 775 775 776 775 774 781 778 766 765 766 761 760 759 759 759 759 760 761 761 762 763 764 766 769 770 770 773 775 779 784 788 794 794 795 806 813 812 812 814 813 812 812 813 814 808 799 797 803 807 807 806 805 801 799 798 797 796 798 800 801 802 802 803 803 804 805 805 806
796 794 792 791 789 787 786 785 784 782 781 779 777 777 775 775 775 774 775 775 776 777 778 776 775 783 782 769 764 762 759 760 759 759 759 759 760 761 761 762 763 766 773 778 777 775 777 780 786 791 794 798 797 796 798 799 799 804 807 809 812 812 812 810 804 796 798 807 811 812 812 809 805 802 800 799 798 800 801 801 802 802 802 803 804 804 804 805
795 794 792 790 789 787 786 784 784 782 781 780 777 776 778 781 781 779 776 774 775 774 774 773 773 776 774 766 762 761 760 760 760 759 759 759 760 761 763 764 767 771 778 784 783 779 780 788 794 793 793 794 794 793 791 791 794 797 801 805 807 810 810 804 799 797 799 809 815 816 819 816 810 806 803 801 801 802 803 803 803 803 803 803 804 804 803 804
795 793 791 790 788 787 785 784 783 782 781 780 778 779 784 788 790 788 782 775 770 768 770 769 769 770 767 763 762 761 762 763 761 759 759 759 759 765 769 770 776 781 784 786 785 781 784 793 795 790 791 791 790 791 791 791 793 794 798 802 805 808 808 801 798 799 799 809 820 819 819 818 814 810 805 802 804 803 802 803 803 803 803 802 803 803 802 801
794 792 791 789 788 786 785 784 783 782 782 781 780 781 785 786 787 786 785 783 773 766 768 767 767 768 762 761 761 760 765 768 766 761 758 759 761 769 774 774 781 786 785 785 787 789 793 795 791 787 790 790 789 791 792 794 794 796 798 802 806 806 805 804 802 801 799 808 821 821 821 821 814 809 805 804 805 802 799 800 800 801 802 802 802 802 802 801
794 791 790 788 787 786 785 783 783 782 782 781 781 782 784 783 782 781 784 789 781 768 767 768 767 767 763 761 759 760 767 771 771 764 757 760 765 769 774 778 783 786 785 787 790 797 800 792 784 785 789 788 791 793 792 795 797 798 799 804 807 805 806 811 809 806 803 808 817 821 827 826 816 810 806 803 803 802 799 798 798 798 799 799 798 798 799 800
793 790 789 787 786 785 784 783 783 782 782 781 782 782 783 782 781 781 782 789 788 774 766 765 765 765 764 760 758 762 767 768 769 765 757 761 768 770 773 777 783 786 786 787 789 796 796 785 780 785 787 787 792 794 794 796 799 798 797 800 803 802 804 808 809 809 809 812 814 819 832 829 817 814 808 800 802 802 800 799 799 797 796 796 796 796 796 796
792 790 788 786 786 785 783 783 782 782 782 781 782 781 782 781 779 780 783 792 794 778 766 765 764 763 760 758 759 761 765 766 764 761 757 759 767 772 775 775 781 786 787 788 791 793 788 780 778 783 785 787 791 794 793 794 798 798 793 792 795 797 801 807 810 812 820 825 814 815 836 832 814 814 811 802 804 804 800 800 799 798 796 796 797 796 796 795
792 790 787 786 785 784 783 782 782 783 782 781 781 781 781 780 779 778 784 799 799 782 773 770 768 766 760 761 760 759 771 772 760 757 757 758 760 766 776 778 779 783 784 785 788 787 783 777 778 781 784 788 791 793 791 790 798 801 788 781 787 791 799 810 811 813 824 827 812 808 828 833 819 813 809 803 805 804 801 800 798 797 796 795 794 794 794 794
791 789 787 786 784 783 783 782 783 783 782 782 780 780 780 778 778 776 787 810 807 786 779 774 770 767 762 762 760 766 782 776 760 758 757 759 759 762 776 781 780 781 779 783 791 787 780 778 780 782 784 790 792 790 787 786 796 798 782 775 782 788 797 806 807 810 815 817 815 812 818 831 827 812 801 801 806 806 801 799 797 795 795 792 791 790 791 792
791 788 786 785 784 783 782 782 783 781 781 782 779 780 779 777 778 778 798 824 810 783 778 774 766 763 760 761 761 769 776 771 771 769 755 757 762 764 777 780 779 781 776 785 796 787 778 779 780 781 786 790 786 781 778 781 789 787 779 780 784 790 799 806 812 818 815 817 827 821 816 831 829 807 799 801 805 807 800 794 792 791 792 791 789 788 787 789
789 787 785 784 783 782 782 782 781 780 780 780 779 779 777 776 777 785 809 824 801 778 776 772 765 765 764 765 766 769 769 768 775 769 756 760 762 763 776 776 776 781 778 784 790 782 776 775 774 777 784 785 777 774 774 778 782 778 778 786 792 799 807 814 823 829 827 827 830 823 818 832 828 808 807 808 805 802 790 785 787 786 788 788 787 787 785 787
788 786 784 783 782 781 781 781 779 779 779 778 779 778 775 778 785 804 824 818 795 783 776 771 771 771 771 773 774 773 772 771 771 766 763 766 763 763 770 771 773 780 782 783 784 780 774 770 771 774 778 775 770 772 773 774 774 772 780 791 798 807 811 816 822 828 838 835 825 818 814 825 827 809 805 804 791 784 779 780 783 782 784 785 785 785 784 785
786 784 782 781 781 781 780 779 778 778 779 778 779 776 778 786 798 820 825 803 791 788 777 775 776 773 775 780 780 776 775 774 771 771 773 773 772 772 774 776 778 782 788 786 782 781 776 773 775 772 770 770 769 771 774 773 771 774 784 790 800 814 816 821 827 831 843 837 819 813 811 823 829 808 796 793 779 774 778 778 778 777 780 782 782 784 783 783
784 782 781 779 779 779 779 778 777 778 779 778 779 778 785 801 811 819 812 795 794 792 781 781 779 775 779 781 782 780 779 779 775 776 780 781 783 781 783 787 785 791 801 798 791 786 780 778 778 772 767 769 772 774 775 775 775 778 785 788 805 827 830 835 842 840 841 831 815 813 815 824 823 798 789 789 779 775 774 771 771 772 775 778 780 781 781 781
782 779 778 777 777 777 776 777 776 778 778 777 780 781 793 813 818 811 804 798 796 787 780 781 779 779 781 782 784 782 781 782 778 779 782 784 788 786 786 787 785 791 801 803 801 797 790 784 778 776 772 768 772 777 780 781 780 783 786 788 806 831 843 848 850 845 838 825 812 811 817 822 813 794 788 787 779 772 767 764 765 766 769 773 776 778 779 780
779 777 776 775 774 774 775 776 776 777 777 777 782 789 802 816 813 804 802 798 790 782 780 783 781 782 783 784 785 782 783 785 781 783 784 785 790 790 788 786 784 786 791 799 805 805 807 802 788 784 781 774 774 778 780 779 780 783 782 784 797 815 834 845 843 838 835 827 821 819 819 816 806 795 788 782 777 770 763 760 759 760 764 768 773 777 778 779
777 775 774 773 772 772 773 774 775 776 777 779 786 797 808 813 808 805 801 793 787 784 783 783 783 785 786 786 785 782 783 786 785 786 788 790 794 794 792 789 785 786 790 800 805 805 813 810 791 783 781 778 777 776 774 776 783 784 778 786 796 797 812 829 827 821 823 828 830 826 815 802 793 788 782 779 778 772 765 761 760 762 763 766 773 776 776 778
775 773 772 771 770 771 771 773 774 775 777 782 793 802 803 801 800 800 793 786 787 787 785 786 786 789 792 789 788 785 782 784 788 790 791 794 795 794 793 790 786 786 787 797 805 806 811 806 790 783 779 775 778 777 772 777 786 786 785 795 796 786 795 818 825 818 818 825 825 820 812 799 791 788 782 781 781 777 774 769 766 766 764 767 773 774 775 776
773 772 771 769 769 770 771 772 773 774 777 785 795 800 797 792 790 790 786 783 785 785 787 793 791 792 797 794 791 788 785 787 790 792 796 799 797 793 793 790 786 785 783 789 798 801 805 806 794 789 786 777 773 775 773 772 778 787 793 794 790 788 792 809 828 830 828 828 820 815 817 812 808 803 790 786 788 785 783 778 773 770 768 770 772 772 773 773
773 771 770 769 769 769 770 772 773 774 779 788 796 797 794 790 787 785 782 781 783 784 787 793 792 792 797 797 794 790 788 791 793 795 799 802 799 793 792 791 785 784 783 783 790 795 800 807 799 791 792 784 773 777 782 777 773 779 787 784 788 801 805 811 826 833 837 837 824 816 819 819 819 815 802 796 796 792 789 784 779 776 774 773 772 772 772 772
773 773 772 769 768 769 771 772 773 776 784 792 798 796 792 789 785 781 779 779 783 785 788 790 789 790 793 793 793 792 791 793 795 798 801 803 801 792 789 791 786 784 783 781 788 794 797 807 806 792 788 787 783 788 800 798 782 775 781 785 790 798 804 809 813 815 827 836 829 819 818 820 819 813 809 804 799 796 793 788 785 782 780 778 776 776 776 776
774 776 775 770 769 770 771 771 775 782 789 795 797 794 790 787 781 777 776 777 780 782 785 788 788 789 790 790 792 793 792 794 796 800 802 801 799 793 787 788 787 785 785 782 786 793 796 806 811 798 789 795 800 800 804 806 798 790 793 801 804 801 800 805 804 801 808 819 825 822 819 821 817 808 808 805 799 797 795 791 790 787 784 782 780 779 780 781
776 779 777 771 770 772 771 775 782 788 792 795 795 792 788 784 779 777 775 774 776 776 778 783 785 786 788 789 792 791 791 795 796 799 801 798 799 797 788 785 786 786 786 786 788 792 796 803 808 806 802 804 805 797 794 798 799 798 800 806 811 809 810 816 813 803 799 804 816 823 823 824 816 804 805 804 798 797 795 792 791 789 787 786 783 780 780 780
779 782 777 772 772 772 773 782 789 791 791 791 789 787 784 781 779 777 774 773 775 775 775 779 781 784 786 787 790 790 791 796 798 798 799 797 797 795 788 784 786 785 785 791 793 789 792 799 805 809 810 806 801 794 792 794 792 792 796 802 806 809 817 825 819 807 803 803 808 818 826 825 813 804 804 802 798 796 795 793 791 790 789 787 787 784 780 779
783 782 775 772 773 772 778 789 792 791 789 786 784 783 781 779 780 778 776 775 776 776 776 777 779 782 783 784 787 789 790 795 798 797 797 797 793 788 785 784 784 785 786 792 794 788 791 803 808 810 812 805 796 792 791 789 789 794 798 800 806 812 815 817 813 806 808 811 807 812 827 827 811 804 804 800 798 796 795 794 791 790 790 788 789 788 782 779
787 784 777 773 773 774 781 790 790 789 788 784 784 783 779 778 779 779 779 777 775 776 777 777 777 778 780 781 783 786 790 795 798 797 796 797 791 784 783 784 784 785 786 788 790 787 795 809 812 815 821 817 810 806 800 793 794 802 805 803 806 811 811 811 810 807 812 822 817 811 824 829 814 805 805 802 800 798 796 795 791 789 791 789 788 788 784 781
787 785 780 776 773 776 782 785 785 787 788 788 788 785 782 780 776 774 776 775 772 774 776 776 775 775 777 781 783 786 789 792 795 796 796 795 791 784 783 784 784 783 783 784 784 784 795 807 809 815 827 832 829 823 813 805 803 805 807 808 808 809 813 814 810 807 813 826 825 818 824 827 814 808 809 806 803 802 799 796 792 788 788 788 787 787 786 784
787 786 784 779 776 778 782 782 782 785 788 790 789 786 786 785 777 771 772 774 771 771 774 775 774 775 780 782 785 789 790 790 792 793 794 794 790 786 785 783 783 783 782 782 783 786 797 805 805 808 816 820 818 814 808 806 807 809 809 812 812 810 814 816 813 815 820 824 826 823 821 822 818 815 813 810 807 806 802 799 796 792 790 790 789 787 786 786
789 790 790 788 784 783 784 785 784 784 786 788 788 787 787 787 782 775 771 771 771 770 773 775 774 777 782 783 787 792 792 791 790 791 795 795 791 788 787 784 784 784 782 784 785 788 798 806 807 805 806 807 805 804 804 803 806 812 812 812 814 812 815 821 823 824 824 825 828 824 817 819 822 818 814 812 809 806 803 801 799 797 794 793 791 789 788 787
790 791 791 791 791 789 788 787 786 785 785 785 787 788 787 787 787 782 775 771 771 770 774 778 777 776 778 780 785 791 793 793 794 795 796 796 793 790 788 786 786 784 784 786 787 789 797 806 808 806 805 806 805 802 803 804 806 811 812 811 813 814 816 825 828 824 823 827 830 824 819 821 822 817 814 812 809 806 804 801 799 797 795 794 793 791 790 789
791 792 790 789 791 791 789 787 787 786 785 785 786 786 786 787 787 784 778 775 774 772 774 779 779 776 777 778 780 788 792 794 797 798 795 794 796 795 793 791 789 785 785 787 788 792 798 803 806 807 806 808 809 805 805 808 810 812 814 813 814 815 816 822 825 821 821 828 830 825 823 823 819 816 813 810 807 805 802 800 799 799 797 796 795 794 793 793
794 794 793 792 791 790 788 788 787 786 784 786 787 785 785 786 785 783 780 777 777 776 775 777 776 777 781 779 778 783 784 783 787 790 790 792 796 796 794 794 792 788 787 790 792 793 797 805 808 806 808 814 812 809 810 812 813 815 818 817 815 814 814 818 821 819 819 828 833 832 831 826 818 813 812 809 807 805 804 803 802 800 800 799 798 798 797 796
796 795 795 795 793 790 789 788 788 788 786 785 786 785 784 784 782 783 780 773 772 773 771 772 774 778 781 780 777 778 777 776 777 778 780 784 786 788 789 790 791 790 790 793 794 792 796 805 808 805 813 821 817 815 817 814 813 817 819 819 819 816 814 817 820 820 820 825 833 839 838 829 819 813 811 810 809 809 809 807 805 803 803 802 802 802 801 801
796 795 794 796 795 792 791 790 790 790 787 784 784 783 783 781 779 782 781 771 766 766 765 767 772 776 779 780 777 773 772 773 774 773 776 777 778 781 783 785 787 789 791 794 796 798 799 802 806 808 816 824 822 820 819 817 821 826 823 821 822 819 816 816 816 818 821 824 830 837 836 827 819 815 813 813 813 813 813 811 809 808 806 805 805 805 804 804